Hourly Data Report for December 08, 2020

SHEARWATER RCS
NOVA SCOTIA
Current Station Operator: ECCC - MSC

44°37'47.000" N
63°30'48.000" W
24.00 m
8205092
71264
AAW

Download Data

Hourly Data (December 2020)
Hourly Data Report for December 8, 2020
TIME
LST
Temp Definition
°C
Dew Point Definition
°C
Rel Hum Definition
%
Precip. Amount Definition
mm

Wind Dir Definition
10's deg

Wind Spd Definition
km/h
Visibility Definition
km
Stn Press Definition
kPa
Hmdx Definition


Wind Chill Definition


Weather Definition


00:00 1.0 -0.8 88 0.0 29 4   100.22     LegendNANA
01:00 0.5 -1.0 89 0.0 34 7   100.15     LegendNANA
02:00 -0.2 -1.3 93 0.0 35 7   100.12   -3 LegendNANA
03:00 -0.3 -1.5 91 0.0 1 7   100.08   -3 LegendNANA
04:00 -0.5 -2.0 89 0.0 2 9   100.03   -4 LegendNANA
05:00 -0.8 -2.2 90 0.0 2 12   99.95   -5 LegendNANA
06:00 -0.5 -2.0 89 0.0 1 13   99.96   -5 LegendNANA
07:00 -0.1 -1.7 89 0.0 2 10   99.94   -3 LegendNANA
08:00 0.1 -1.3 90 0.0 1 14   99.81     LegendNANA
09:00 0.6 -1.0 89 0.0 3 14   99.76     LegendNANA
10:00 1.0 -0.8 88 0.0 1 17   99.64     LegendNANA
11:00 1.3 -0.7 87 0.0 1 13   99.47     LegendNANA
12:00 1.7 -0.3 86 0.0 2 18   99.31     LegendNANA
13:00 2.5 0.4 86 0.0 1 17   99.13     LegendNANA
14:00 3.1 0.3 82 0.0 36 21   99.07     LegendNANA
15:00 3.0 0.5 83 0.0 35 20   99.05     LegendNANA
16:00 3.2 -0.2 78 0.0 35 21   99.08     LegendNANA
17:00 2.6 -0.8 78 0.0 34 19   99.08     LegendNANA
18:00 2.6 -0.9 78 0.0 34 24   99.07     LegendNANA
19:00 1.9 -0.5 84 0.0 33 21   99.11     LegendNANA
20:00 1.9 -1.1 81 0.0 33 24   99.17     LegendNANA
21:00 1.5 -1.4 81 0.0 33 23   99.20     LegendNANA
22:00 1.3 -1.4 82 0.0 33 18   99.23     LegendNANA
23:00 1.2 -1.3 83 0.0 32 16   99.32     LegendNANA

Notes on Data Quality.

Legend

  • E = Estimated
  • M = Missing
  • NA = Not Available*
  • [empty] = Indicates an unobserved value
Date modified: